• In Italy
  • List of Countries
  • For 7 days
  • Water Temperature
  • Satellite Maps
  • Weather Map
  • Weather Widgets
  • user-avatar
    Login

    Hourly Weather Sharan

    Today, 20 June, Wednesday

    Time Temperature Precipitation Wind Pressure Humidity
    00:00 +23°C° 0 mm 4 mps 587 mmHg 34%
    01:00 +22°C° 0 mm 4 mps 586 mmHg 38%
    02:00 +22°C° 0 mm 3 mps 586 mmHg 41%
    03:00 +21°C° 0 mm 3 mps 586 mmHg 40%
    04:00 +20°C° 0 mm 3 mps 586 mmHg 39%
    05:00 +20°C° 0 mm 3 mps 586 mmHg 38%
    06:00 +21°C° 0 mm 3 mps 587 mmHg 33%
    07:00 +22°C° 0 mm 3 mps 587 mmHg 28%
    08:00 +23°C° 0 mm 4 mps 588 mmHg 22%
    09:00 +25°C° 0 mm 4 mps 589 mmHg 19%
    10:00 +26°C° 0 mm 3 mps 589 mmHg 17%
    11:00 +27°C° 0 mm 3 mps 589 mmHg 14%
    12:00 +28°C° 0 mm 3 mps 589 mmHg 12%
    13:00 +29°C° 0 mm 3 mps 589 mmHg 10%
    14:00 +30°C° 0 mm 3 mps 589 mmHg 8%
    15:00 +30°C° 0 mm 3 mps 589 mmHg 8%
    16:00 +30°C° 0 mm 3 mps 589 mmHg 7%
    17:00 +30°C° 0 mm 3 mps 589 mmHg 7%
    18:00 +29°C° 0 mm 3 mps 589 mmHg 9%
    19:00 +28°C° 0 mm 3 mps 588 mmHg 12%
    20:00 +27°C° 0 mm 2 mps 588 mmHg 14%
    21:00 +26°C° 0 mm 3 mps 588 mmHg 20%
    22:00 +25°C° 0 mm 3 mps 588 mmHg 26%
    23:00 +23°C° 0 mm 4 mps 588 mmHg 32%

    Tomorrow, 21 June, Thursday

    Time Temperature Precipitation Wind Pressure Humidity
    00:00 +24°C° 0.1 mm 3 mps 588 mmHg 33%
    01:00 +22°C° 0.1 mm 3 mps 587 mmHg 35%
    02:00 +21°C° 0.1 mm 3 mps 587 mmHg 36%
    03:00 +21°C° 0 mm 3 mps 587 mmHg 36%
    04:00 +20°C° 0 mm 3 mps 586 mmHg 35%
    05:00 +20°C° 0 mm 3 mps 586 mmHg 35%
    06:00 +21°C° 0 mm 3 mps 587 mmHg 33%
    07:00 +22°C° 0 mm 3 mps 587 mmHg 32%
    08:00 +22°C° 0 mm 3 mps 588 mmHg 31%
    09:00 +25°C° 0 mm 2 mps 588 mmHg 30%
    10:00 +26°C° 0 mm 2 mps 588 mmHg 29%
    11:00 +27°C° 0 mm 1 mps 588 mmHg 28%
    12:00 +28°C° 0 mm 2 mps 588 mmHg 26%
    13:00 +28°C° 0 mm 2 mps 588 mmHg 23%
    14:00 +29°C° 0 mm 3 mps 588 mmHg 20%
    15:00 +30°C° 0.1 mm 3 mps 588 mmHg 20%
    16:00 +30°C° 0.1 mm 3 mps 588 mmHg 19%
    17:00 +30°C° 0.1 mm 3 mps 587 mmHg 18%
    18:00 +29°C° 0.1 mm 4 mps 587 mmHg 23%
    19:00 +28°C° 0.1 mm 4 mps 587 mmHg 27%
    20:00 +27°C° 0.1 mm 4 mps 587 mmHg 31%
    21:00 +26°C° 0 mm 4 mps 587 mmHg 35%
    22:00 +25°C° 0 mm 5 mps 587 mmHg 39%
    23:00 +25°C° 0 mm 5 mps 587 mmHg 43%

    Day after tomorrow, 22 June, Friday

    Time Temperature Precipitation Wind Pressure Humidity
    00:00 +23°C° 0 mm 4 mps 587 mmHg 44%
    01:00 +22°C° 0 mm 3 mps 586 mmHg 45%
    02:00 +22°C° 0 mm 3 mps 586 mmHg 47%
    03:00 +21°C° 0 mm 3 mps 586 mmHg 46%
    04:00 +21°C° 0 mm 3 mps 586 mmHg 46%
    05:00 +20°C° 0 mm 3 mps 586 mmHg 45%
    06:00 +21°C° 0 mm 3 mps 586 mmHg 43%
    07:00 +22°C° 0 mm 3 mps 587 mmHg 41%
    08:00 +24°C° 0 mm 3 mps 587 mmHg 39%
    09:00 +25°C° 0 mm 3 mps 588 mmHg 34%
    10:00 +26°C° 0 mm 3 mps 588 mmHg 29%
    11:00 +28°C° 0 mm 2 mps 588 mmHg 24%
    12:00 +29°C° 0 mm 3 mps 588 mmHg 20%
    13:00 +30°C° 0 mm 4 mps 588 mmHg 17%
    14:00 +32°C° 0 mm 5 mps 589 mmHg 13%
    15:00 +32°C° 0.1 mm 6 mps 588 mmHg 12%
    16:00 +32°C° 0.1 mm 6 mps 588 mmHg 12%
    17:00 +33°C° 0.1 mm 6 mps 588 mmHg 11%
    18:00 +30°C° 0.2 mm 6 mps 587 mmHg 15%
    19:00 +29°C° 0.2 mm 6 mps 587 mmHg 18%
    20:00 +28°C° 0.2 mm 5 mps 587 mmHg 21%
    21:00 +27°C° 0 mm 5 mps 587 mmHg 27%
    22:00 +25°C° 0 mm 5 mps 587 mmHg 33%
    23:00 +23°C° 0 mm 4 mps 587 mmHg 38%

    23 June, Saturday

    Time Temperature Precipitation Wind Pressure Humidity
    00:00 +23°C° 0 mm 4 mps 586 mmHg 40%
    01:00 +22°C° 0 mm 3 mps 586 mmHg 41%
    02:00 +21°C° 0 mm 3 mps 586 mmHg 43%
    03:00 +21°C° 0 mm 3 mps 585 mmHg 43%
    04:00 +20°C° 0 mm 3 mps 585 mmHg 43%
    05:00 +20°C° 0 mm 3 mps 585 mmHg 43%
    06:00 +21°C° 0 mm 3 mps 586 mmHg 41%
    07:00 +21°C° 0 mm 3 mps 586 mmHg 40%
    08:00 +22°C° 0 mm 3 mps 587 mmHg 38%
    09:00 +24°C° 0 mm 2 mps 587 mmHg 34%
    10:00 +26°C° 0 mm 2 mps 588 mmHg 30%
    11:00 +27°C° 0 mm 1 mps 588 mmHg 25%
    12:00 +28°C° 0 mm 2 mps 588 mmHg 21%
    13:00 +29°C° 0 mm 3 mps 588 mmHg 17%
    14:00 +30°C° 0 mm 4 mps 588 mmHg 13%
    15:00 +32°C° 0 mm 4 mps 588 mmHg 13%
    16:00 +32°C° 0 mm 4 mps 588 mmHg 12%
    17:00 +32°C° 0 mm 4 mps 588 mmHg 11%
    18:00 +30°C° 0 mm 4 mps 587 mmHg 15%
    19:00 +29°C° 0 mm 4 mps 587 mmHg 20%
    20:00 +28°C° 0 mm 4 mps 587 mmHg 24%
    21:00 +27°C° 0 mm 4 mps 587 mmHg 31%
    22:00 +26°C° 0 mm 4 mps 586 mmHg 37%
    23:00 +25°C° 0 mm 5 mps 586 mmHg 44%

    24 June, Sunday

    Time Temperature Precipitation Wind Pressure Humidity
    00:00 +23°C° 0 mm 4 mps 586 mmHg 45%
    01:00 +24°C° 0 mm 2 mps 586 mmHg 46%
    02:00 +23°C° 0 mm 1 mps 585 mmHg 48%
    03:00 +23°C° 0 mm 1 mps 585 mmHg 49%
    04:00 +22°C° 0 mm 1 mps 585 mmHg 50%
    05:00 +21°C° 0 mm 2 mps 585 mmHg 51%
    06:00 +23°C° 0 mm 2 mps 585 mmHg 47%
    07:00 +23°C° 0 mm 2 mps 586 mmHg 43%
    08:00 +24°C° 0 mm 2 mps 586 mmHg 39%
    09:00 +26°C° 0 mm 2 mps 587 mmHg 34%
    10:00 +27°C° 0 mm 1 mps 587 mmHg 28%
    11:00 +28°C° 0 mm 1 mps 587 mmHg 22%
    12:00 +29°C° 0 mm 2 mps 587 mmHg 19%
    13:00 +30°C° 0 mm 2 mps 587 mmHg 16%
    14:00 +31°C° 0 mm 2 mps 587 mmHg 13%
    15:00 +31°C° 0 mm 3 mps 587 mmHg 13%
    16:00 +33°C° 0 mm 3 mps 587 mmHg 12%
    17:00 +33°C° 0 mm 3 mps 587 mmHg 12%
    18:00 +31°C° 0 mm 3 mps 587 mmHg 15%
    19:00 +30°C° 0 mm 3 mps 587 mmHg 17%
    20:00 +29°C° 0 mm 3 mps 586 mmHg 19%
    21:00 +28°C° 0 mm 3 mps 586 mmHg 23%
    22:00 +27°C° 0 mm 3 mps 586 mmHg 26%
    23:00 +26°C° 0 mm 4 mps 586 mmHg 29%

    25 June, Monday

    Time Temperature Precipitation Wind Pressure Humidity
    00:00 +25°C° 0 mm 4 mps 586 mmHg 28%
    01:00 +25°C° 0 mm 4 mps 585 mmHg 28%
    02:00 +23°C° 0 mm 4 mps 585 mmHg 27%
    03:00 +22°C° 0 mm 4 mps 585 mmHg 27%
    04:00 +22°C° 0 mm 4 mps 584 mmHg 27%
    05:00 +21°C° 0 mm 4 mps 584 mmHg 27%
    06:00 +22°C° 0 mm 4 mps 585 mmHg 25%
    07:00 +23°C° 0 mm 4 mps 586 mmHg 23%
    08:00 +25°C° 0 mm 4 mps 586 mmHg 22%
    09:00 +26°C° 0 mm 4 mps 587 mmHg 21%
    10:00 +28°C° 0 mm 3 mps 587 mmHg 20%
    11:00 +29°C° 0 mm 3 mps 587 mmHg 19%
    12:00 +30°C° 0 mm 2 mps 587 mmHg 17%
    13:00 +30°C° 0 mm 2 mps 587 mmHg 15%
    14:00 +31°C° 0 mm 2 mps 587 mmHg 14%
    15:00 +31°C° 0 mm 2 mps 586 mmHg 14%
    16:00 +31°C° 0 mm 3 mps 586 mmHg 15%
    17:00 +31°C° 0 mm 3 mps 586 mmHg 16%
    18:00 +30°C° 0 mm 3 mps 586 mmHg 18%
    19:00 +29°C° 0 mm 3 mps 586 mmHg 21%
    20:00 +28°C° 0 mm 3 mps 585 mmHg 23%
    21:00 +27°C° 0 mm 2 mps 585 mmHg 24%
    22:00 +27°C° 0 mm 2 mps 586 mmHg 25%
    23:00 +26°C° 0 mm 2 mps 586 mmHg 26%
    Show more